Weather History for Benson, United Kingdom

Change the Weather History Date:

Wednesday, October 17, 2012

  Actual Average Record
Temperature  
Mean Temperature 52 °F -  
Max Temperature 60 °F 52 °F 64 °F (1997)
Min Temperature 43 °F 40 °F 26 °F (2010)
Degree Days  
Heating Degree Days 14    
Growing Degree Days 2 (Base 50)    
Moisture  
Dew Point 49 °F    
Average Humidity 81    
Maximum Humidity 94    
Minimum Humidity 57    
Precipitation  
Precipitation 0.16 in - - ()
Sea Level Pressure  
Sea Level Pressure 29.42 in    
Wind  
Wind Speed 14 mph ()    
Max Wind Speed 23 mph    
Max Gust Speed 30 mph    
Visibility 8.1 miles    
Events Rain    
Averages and records for this station are not official NWS values.
T = Trace of Precipitation, MM = Missing Value Source: Averaged Metar Reports

Daily Weather History Graph

Daily Weather History Graph

Search for Another Location

Airport:

Trip Planner

Search our weather history database for the weather conditions in past years. The results will help you decide how hot, cold, wet, or windy it might be!

Date:

Astronomy

Oct. 17, 2012 Rise Set
Actual Time 7:32 AM BST 6:05 PM BST
Civil Twilight 6:58 AM BST 6:39 PM BST
Nautical Twilight 6:19 AM BST 7:18 PM BST
Astronomical Twilight 5:40 AM BST 7:57 PM BST
Moon 10:10 AM BST 7:06 PM BST
Length of Visible Light 11h 41m
Length of Day
10h 33m
Waxing Crescent, 6% of the Moon is Illuminated
Oct 17
Waxing Crescent
Oct 22
First Quarter
Oct 29
Full
Nov 7
Last Quarter
Nov 13
New

Hourly Weather History & Observations

Time (BST) Temp. Dew Point Humidity Pressure Visibility Wind Dir Wind Speed Gust Speed Precip Events Conditions
12:50 AM 49 °F 44 °F 77% 29.54 in 16 mi ESE 15.0 mph - -   Scattered Clouds
12:50 AM 48.2 °F 44.6 °F 87% 29.53 in - ESE 15.0 mph - N/A   Clear
1:50 AM 50.0 °F 44.6 °F 82% 29.47 in - ESE 18.4 mph - N/A   Clear
2:50 AM 50.0 °F 46.4 °F 87% 29.42 in 6.2 mi ESE 18.4 mph - N/A   Overcast
3:50 AM 51.8 °F 48.2 °F 88% 29.36 in 5.0 mi ESE 20.7 mph - N/A   Mostly Cloudy
4:50 AM 51.8 °F 50.0 °F 94% 29.30 in 1.9 mi SE 23.0 mph - N/A Rain Rain
5:50 AM 53.6 °F 51.8 °F 94% 29.27 in 2.5 mi SE 18.4 mph - N/A Rain Rain
6:50 AM 55 °F 53 °F 88% 29.33 in 19 mi South 13.8 mph - - Rain Light Rain
6:50 AM 55.4 °F 51.8 °F 88% 29.33 in 6.2 mi South 13.8 mph - N/A   Scattered Clouds
7:50 AM 53.6 °F 50.0 °F 88% 29.36 in 6.2 mi SSW 5.8 mph - N/A   Mostly Cloudy
8:50 AM 53.6 °F 50.0 °F 88% 29.39 in 6.2 mi South 11.5 mph - N/A   Mostly Cloudy
9:50 AM 55.4 °F 51.8 °F 88% 29.42 in 6.2 mi South 13.8 mph - N/A   Mostly Cloudy
10:50 AM 57.2 °F 50.0 °F 77% 29.42 in 6.2 mi South 13.8 mph - N/A   Scattered Clouds
11:50 AM 59.0 °F 50.0 °F 72% 29.44 in 6.2 mi South 15.0 mph - N/A   Scattered Clouds
12:50 PM 58 °F 47 °F 57% 29.45 in 16 mi SW 13.8 mph - - Rain Light Rain Showers
12:50 PM 57.2 °F 46.4 °F 67% 29.44 in 6.2 mi SW 13.8 mph - N/A   Partly Cloudy
2:50 PM 59 °F 48 °F 59% 29.46 in 16 mi South 15.0 mph - -   Scattered Clouds
2:50 PM 59.0 °F 48.2 °F 67% 29.44 in 6.2 mi South 15.0 mph - N/A   Mostly Cloudy
3:50 PM 59.0 °F 46.4 °F 63% 29.44 in 6.2 mi South 17.3 mph - N/A   Mostly Cloudy
4:50 PM 55.4 °F 46.4 °F 72% 29.44 in 6.2 mi South 17.3 mph 29.9 mph N/A   Mostly Cloudy
5:50 PM 53.6 °F 46.4 °F 77% 29.44 in 6.2 mi SSE 11.5 mph - N/A   Mostly Cloudy
6:50 PM 55 °F 48 °F 71% 29.46 in 16 mi SSE 12.7 mph - -   Scattered Clouds
6:50 PM 55.4 °F 48.2 °F 77% 29.44 in 6.2 mi SSE 12.7 mph - N/A   Mostly Cloudy
7:50 PM 51.8 °F 48.2 °F 88% 29.44 in 6.2 mi SSE 13.8 mph - N/A Rain Light Rain Showers
8:50 PM 51.8 °F 50.0 °F 94% 29.44 in 6.2 mi SE 9.2 mph - N/A   Mostly Cloudy
9:50 PM 53 °F 49 °F 84% 29.45 in 16 mi SSE 11.5 mph - -   Partly Cloudy
9:50 PM 53.6 °F 50.0 °F 88% 29.44 in 6.2 mi SSE 11.5 mph - N/A   Mostly Cloudy
10:50 PM 53.6 °F 51.8 °F 94% 29.44 in 6.2 mi SSE 13.8 mph - N/A Rain Rain
11:50 PM 53.6 °F 51.8 °F 94% 29.44 in 6.2 mi SSE 17.3 mph - N/A Rain Rain